This demonstration page uses our WeatherBlox Daily Observations layout. Learn more.

Left ArrowRight Arrow

Hourly Observations for September 7, 2019

Temp ( °F °C ) Dew Point ( °F °C ) Humidity (%) Winds ( mph kmh ) Pressure ( in mb ) Visibility ( mi km ) Precip ( " mm )
12:15 am 00:15 Clear 60 15.4 59 14.8 96 96 Calm 30.11 1020 10 16 0.00 0.00
12:35 am 00:35 Clear 59 15.2 58 14.6 96 96 E 3 6 30.10 1019 10 16 0.00 0.00
12:55 am 00:55 Clear 60 15.4 58 14.7 96 96 E 7 11 30.08 1019 10 16 0.00 0.00
1:15 am 01:15 Clear 62 16.5 60 15.3 93 93 ESE 3 6 30.08 1019 10 16 0.00 0.00
1:35 am 01:35 Clear 63 17.2 60 15.5 90 90 SE 7 11 30.07 1018 10 16 0.00 0.00
1:55 am 01:55 Clear 63 17 60 15.5 91 91 SE 6 9 30.07 1018 10 16 0.00 0.00
2:15 am 02:15 Clear 62 16.8 60 15.6 93 93 SE 5 7 30.07 1018 10 16 0.00 0.00
2:35 am 02:35 Clear 64 17.5 60 15.7 89 89 SE 6 9 30.06 1018 10 16 0.00 0.00
2:55 am 02:55 Partly Cloudy 63 17.3 60 15.7 90 90 SE 6 9 30.06 1018 10 16 0.00 0.00
3:15 am 03:15 Partly Cloudy 63 17.1 60 15.5 90 90 SE 5 7 30.06 1018 10 16 0.00 0.00
3:35 am 03:35 Partly Cloudy 62 16.5 59 15.2 92 92 SE 3 6 30.06 1018 10 16 0.00 0.00
3:55 am 03:55 Partly Cloudy 62 16.7 59 15.1 90 90 Calm 30.07 1018 10 16 0.00 0.00
4:15 am 04:15 Clear 60 15.6 59 15.1 97 97 ENE 3 6 30.08 1019 10 16 0.00 0.00
4:35 am 04:35 Mostly Cloudy 61 15.9 60 15.3 96 96 NE 6 9 30.08 1019 10 16 0.00 0.00
4:55 am 04:55 Mostly Cloudy 61 16 60 15.4 96 96 E 8 13 30.07 1018 10 16 0.00 0.00
5:15 am 05:15 Partly Cloudy 62 16.7 60 15.3 92 92 ESE 9 15 30.04 1017 10 16 0.00 0.00
5:35 am 05:35 Partly Cloudy 63 17 60 15.3 90 90 SE 9 15 30.03 1017 10 16 0.00 0.00
5:55 am 05:55 Mostly Cloudy 62 16.9 60 15.5 92 92 SE 9 15 30.03 1017 10 16 0.00 0.00
6:15 am 06:15 Cloudy 63 17.1 60 15.4 90 90 SE 8 13 30.03 1017 10 16 0.00 0.00
6:35 am 06:35 Cloudy 63 17.1 60 15.3 89 89 SSE 8 13 30.03 1017 10 16 0.00 0.00
6:55 am 06:55 Cloudy 63 17.1 60 15.6 91 91 SE 9 15 30.02 1016 10 16 0.00 0.00
7:15 am 07:15 Cloudy 63 17.2 60 15.7 91 91 S 5 7 30.03 1017 10 16 0.00 0.00
7:35 am 07:35 Cloudy 64 17.5 61 15.9 90 90 SSE 8 13 30.01 1016 10 16 0.00 0.00
7:55 am 07:55 Cloudy 64 17.5 61 16 91 91 SE 3 6 30.01 1016 10 16 0.00 0.00
8:15 am 08:15 Cloudy 64 17.8 61 16 89 89 SSE 8 13 30.00 1016 10 16 0.00 0.00
8:35 am 08:35 Cloudy 65 18.2 61 16.1 88 88 SSE 12 19 29.99 1015 10 16 0.00 0.00
8:55 am 08:55 Mostly Cloudy 66 19 61 16.1 83 83 SE 12 19 29.96 1015 10 16 0.00 0.00
9:15 am 09:15 Sunny 65 18.5 60 15.8 84 84 SSE 14 22 29.96 1015 10 16 0.00 0.00
9:35 am 09:35 Mostly Cloudy 65 18.5 61 16 85 85 SSE 8 13 29.96 1015 10 16 0.00 0.00
9:55 am 09:55 Cloudy 66 18.9 61 16.1 84 84 S 10 17 29.96 1015 10 16 0.00 0.00
10:15 am 10:15 Cloudy 67 19.7 62 16.4 81 81 SSE 13 20 29.94 1014 10 16 0.00 0.00
10:35 am 10:35 Cloudy 68 20.1 62 16.5 80 80 S 14 22 29.93 1014 10 16 0.00 0.00
10:55 am 10:55 Cloudy with Rain 67 19.5 62 16.9 85 85 SSE 15 24 29.93 1013 10 16 0.00 0.00
11:15 am 11:15 Cloudy 67 19.6 63 17.4 87 87 S 12 19 29.94 1014 10 16 0.00 0.00
11:35 am 11:35 Cloudy 68 20 64 17.5 86 86 S 8 13 29.92 1013 10 16 0.00 0.00
11:55 am 11:55 Cloudy 68 20.1 64 17.5 85 85 S 10 17 29.92 1013 10 16 0.00 0.00
12:15 pm 12:15 Cloudy 69 20.4 64 17.5 84 84 S 12 19 29.90 1012 10 16 0.00 0.00
12:35 pm 12:35 Cloudy 70 21 64 17.5 81 81 S 12 19 29.89 1012 10 16 0.00 0.00
12:55 pm 12:55 Cloudy 71 21.9 64 17.8 78 78 S 9 15 29.88 1012 10 16 0.00 0.00
1:15 pm 13:15 Cloudy 73 22.5 65 18.1 76 76 S 9 15 29.87 1012 10 16 0.00 0.00
1:35 pm 13:35 Cloudy 73 23 65 18.3 75 75 S 6 9 29.86 1011 10 16 0.00 0.00
1:55 pm 13:55 Cloudy 73 22.9 65 18.2 75 75 SSE 6 9 29.86 1011 10 16 0.00 0.00
2:15 pm 14:15 Mostly Cloudy 75 24 66 18.7 72 72 S 7 11 29.84 1010 10 16 0.00 0.00
2:35 pm 14:35 Mostly Cloudy 75 24.1 66 18.7 72 72 S 6 9 29.83 1010 10 16 0.00 0.00
2:55 pm 14:55 Mostly Cloudy 77 25.2 66 19 69 69 S 3 6 29.82 1010 10 16 0.00 0.00
3:15 pm 15:15 Partly Cloudy 77 24.8 66 19 70 70 S 5 7 29.81 1010 10 16 0.00 0.00
3:35 pm 15:35 Partly Cloudy 78 25.4 66 19 68 68 SSE 5 7 29.81 1009 10 16 0.00 0.00
3:55 pm 15:55 Sunny 77 25 66 19 69 69 S 5 7 29.80 1009 10 16 0.00 0.00
4:15 pm 16:15 Sunny 79 26.1 66 19.1 65 65 SW 5 7 29.79 1009 10 16 0.00 0.00
4:35 pm 16:35 Partly Cloudy 79 26 67 19.4 67 67 ESE 3 6 29.78 1009 10 16 0.00 0.00
4:55 pm 16:55 Partly Cloudy 78 25.7 67 19.2 67 67 Calm 29.78 1009 10 16 0.00 0.00
5:15 pm 17:15 Partly Cloudy 79 26.1 67 19.7 68 68 SE 6 9 29.78 1009 10 16 0.00 0.00
5:35 pm 17:35 Sunny 78 25.4 67 19.7 71 71 SE 7 11 29.79 1009 10 16 0.00 0.00
5:55 pm 17:55 Sunny 78 25.8 68 20 70 70 SE 9 15 29.78 1009 10 16 0.00 0.00
6:15 pm 18:15 Sunny 78 25.4 67 19.6 70 70 SE 9 15 29.79 1009 10 16 0.00 0.00
6:35 pm 18:35 Sunny 77 25.1 67 19.6 72 72 SE 8 13 29.79 1009 10 16 0.00 0.00
6:55 pm 18:55 Sunny 76 24.3 67 19.6 75 75 SE 9 15 29.80 1009 10 16 0.00 0.00
7:15 pm 19:15 Sunny 74 23.1 67 19.6 81 81 SE 9 15 29.81 1009 10 16 0.00 0.00
7:35 pm 19:35 Sunny 73 23 67 19.6 81 81 SE 9 15 29.81 1009 10 16 0.00 0.00
7:55 pm 19:55 Sunny 73 22.5 67 19.5 83 83 SE 9 15 29.81 1010 10 16 0.00 0.00
8:15 pm 20:15 Clear 71 21.9 67 19.5 86 86 SE 7 11 29.82 1010 10 16 0.00 0.00
8:35 pm 20:35 Clear 70 21.2 67 19.3 89 89 SE 7 11 29.83 1010 10 16 0.00 0.00
8:55 pm 20:55 Clear 69 20.8 67 19.2 91 91 ESE 5 7 29.85 1011 10 16 0.00 0.00
9:15 pm 21:15 Clear 69 20.4 66 19 92 92 SE 3 6 29.85 1011 10 16 0.00 0.00
9:35 pm 21:35 Clear 68 20.1 66 19 93 93 SE 3 6 29.85 1011 10 16 0.00 0.00
9:55 pm 21:55 Clear 65 18.5 65 18.1 98 98 Calm 29.88 1012 10 16 0.00 0.00
10:15 pm 22:15 Clear 65 18.1 64 17.9 99 99 Calm 29.87 1011 10 16 0.00 0.00
10:35 pm 22:35 Clear with Mist and Fog 64 17.5 63 17.3 99 99 Calm 29.87 1012 5 8 0.00 0.00
10:55 pm 22:55 Clear with Mist and Fog 63 17.2 63 17.2 100 100 NNE 5 7 29.89 1012 4 6 0.00 0.00
11:15 pm 23:15 Clear with Mist and Fog 62 16.5 62 16.5 100 100 Calm 29.89 1012 4 6 0.00 0.00
11:30 pm 23:30 Clear with Mist and Fog 61 16 61 15.9 99 99 ENE 3 6 29.91 1013 5 8 0.00 0.00
11:57 pm 23:57 Mostly Cloudy with Mist and Fog 61 16 61 16 100 100 E 3 6 29.91 1013 1 2 0.00 0.00

Powered by AerisWeather